Regional Weather Roundup
Issued by NWS Albany, NY

Home | Current Version | Previous Version | Graphics & Text | Print | Product List | Glossary Off
Versions: 1 2 3 4 5 6 7 8 9 10 11 12 13 14 15 16 17 18 19 20 21 22 23 24 25 26 27

000
ASUS41 KALY 230710
RWRALY

NEW YORK STATE HOURLY WEATHER ROUNDUP
NATIONAL WEATHER SERVICE ALBANY NY
200 AM EST THU NOV 23 2017

NOTE: "FAIR" INDICATES FEW OR NO CLOUDS BELOW 12,000 FEET WITH NO
SIGNIFICANT WEATHER AND/OR NO OBSTRUCTIONS TO VISIBILITY.

NYZ032-033-038>043-046>054-057>066-NYZ062>081-082-084-230800-
EAST


CITY           SKY/WX    TMP DP  RH WIND       PRES   REMARKS
ALBANY         CLOUDY    33  22  63 W15       30.09R WCI  23
GLENS FALLS    PTCLDY    26  18  71 E5        30.08R WCI  20
POUGHKEEPSIE   CLEAR     30  19  63 NW6       30.07S WCI  24
NEWBURGH       CLEAR     30  21  69 NW12      30.07S WCI  21
MONTGOMERY     CLEAR     30  18  60 CALM      30.07F
WHITE PLAINS   CLEAR     32  20  61 NW15G22   30.04S WCI  22
ISLIP          MOCLDY    35  25  66 W7        30.05R WCI  29
NEW YORK CITY  CLEAR     36  21  54 NW12G21   30.09R WCI  28
CENTRAL PARK   CLEAR     34  19  54 VRB7      30.11R WCI  28
$$

NYZ005>009-017-018-044>046-055-056-230800-
CENTRAL


CITY           SKY/WX    TMP DP  RH WIND       PRES   REMARKS
FULTON         CLOUDY    27  19  72 NW8       30.15S WCI  19
SYRACUSE       CLOUDY    28  19  69 W9        30.14S WCI  19
ROME           CLOUDY    28  21  75 W8        30.13S WCI  20
ELMIRA         CLOUDY    29  19  66 SW7       30.14F WCI  22
BINGHAMTON     CLOUDY    26  16  65 NW8       30.07S WCI  18
MONTICELLO     CLOUDY    26  18  71 NW14      30.06S WCI  14
$$

NYZ026>034-041>043-087-230800-
NORTH


CITY           SKY/WX    TMP DP  RH WIND       PRES   REMARKS
WATERTOWN      CLOUDY    24  16  71 NE8       30.16R WCI  15
FORT DRUM      NOT AVBL
OGDENSBURG     FAIR      20  16  84 CALM      30.16R
MASSENA        CLEAR     20  15  81 W3        30.17R
SARANAC LAKE   LGT SNOW  16  13  88 VRB3      30.02R FOG
PLATTSBURGH    CLOUDY    22  10  60 NW16      30.11R WCI   8
$$

NYZ001>004-010>016-019>021-085-230800-
WEST


CITY           SKY/WX    TMP DP  RH WIND       PRES   REMARKS
NIAGARA FALLS  CLOUDY    30  20  66 SW5       30.16F WCI  25
BUFFALO        CLOUDY    29  19  66 W7        30.16F WCI  22
DUNKIRK        CLOUDY    30  22  72 S6        30.17F WCI  24
JAMESTOWN      CLOUDY    24  19  81 CALM      30.12F
WELLSVILLE     CLOUDY    22  14  71 W7        30.11S WCI  13
ROCHESTER      CLOUDY    29  21  72 W8        30.16S WCI  21
PENN YAN       CLOUDY    28  17  63 W7        30.14F WCI  21
$$

             KEY
       WCI = WIND CHILL INDEX
       VSB = VISIBILITY
       HX  = HEAT INDEX
$$




USA.gov is the U.S. government's official web portal to all federal, state and local government web resources and services.